Time,TemperatureF,DewpointF,PressureIn,WindDirection,WindDirectionDegrees,WindSpeedMPH,WindSpeedGustMPH,Humidity,HourlyPrecipIn,Conditions,Clouds,dailyrainin,SoftwareType,DateUTC
2013-01-20 00:02:00,27.9,19.4,29.96,West,280,0.0,6.0,70,0.00,,,0.04,meteohub,2013-01-20 05:02:00,
2013-01-20 00:12:00,27.9,19.4,29.96,ENE,78,0.0,6.0,70,0.00,,,0.00,meteohub,2013-01-20 05:12:00,
2013-01-20 00:17:00,28.2,20.1,29.96,SSE,168,3.0,4.0,71,0.00,,,0.00,meteohub,2013-01-20 05:17:00,
2013-01-20 00:22:00,28.0,19.6,29.96,NNE,32,2.0,6.0,70,0.00,,,0.00,meteohub,2013-01-20 05:22:00,
2013-01-20 00:27:00,27.7,19.2,29.93,SE,145,5.0,6.0,70,0.00,,,0.00,meteohub,2013-01-20 05:27:00,
2013-01-20 00:32:00,28.2,19.8,29.93,ENE,78,3.0,5.0,70,0.00,,,0.00,meteohub,2013-01-20 05:32:00,
2013-01-20 00:37:00,27.9,19.4,29.93,WSW,258,0.0,5.0,70,0.00,,,0.00,meteohub,2013-01-20 05:37:00,
2013-01-20 00:42:00,28.0,19.6,29.93,ENE,78,0.0,5.0,70,0.00,,,0.00,meteohub,2013-01-20 05:42:00,
2013-01-20 00:47:00,28.0,19.6,29.93,SSE,168,0.0,5.0,70,0.00,,,0.00,meteohub,2013-01-20 05:47:00,
2013-01-20 00:52:00,28.2,19.8,29.93,SSW,212,0.0,0.0,70,0.00,,,0.00,meteohub,2013-01-20 05:52:00,
2013-01-20 00:57:00,28.6,20.1,29.93,SSE,168,5.0,5.0,70,0.00,,,0.00,meteohub,2013-01-20 05:57:00,
2013-01-20 01:02:00,28.6,19.8,29.93,SE,145,0.0,5.0,69,0.00,,,0.00,meteohub,2013-01-20 06:02:00,
2013-01-20 01:07:00,28.6,19.8,29.93,SSE,168,3.0,5.0,69,0.00,,,0.00,meteohub,2013-01-20 06:07:00,
2013-01-20 01:12:00,28.4,19.9,29.93,SSE,168,0.0,5.0,70,0.00,,,0.00,meteohub,2013-01-20 06:12:00,
2013-01-20 01:17:00,28.6,19.8,29.93,ESE,122,0.0,5.0,69,0.00,,,0.00,meteohub,2013-01-20 06:17:00,
2013-01-20 01:22:00,28.9,20.1,29.93,ESE,122,0.0,5.0,69,0.00,,,0.00,meteohub,2013-01-20 06:22:00,
2013-01-20 01:27:00,29.5,20.3,29.93,ESE,122,0.0,5.0,68,0.00,,,0.00,meteohub,2013-01-20 06:27:00,
2013-01-20 01:37:00,29.7,19.8,29.93,ESE,122,0.0,4.0,66,0.00,,,0.00,meteohub,2013-01-20 06:37:00,
2013-01-20 01:42:00,30.0,20.1,29.93,ESE,122,3.0,4.0,66,0.00,,,0.00,meteohub,2013-01-20 06:42:00,
2013-01-20 01:47:00,30.6,19.9,29.93,SSE,168,5.0,5.0,64,0.00,,,0.00,meteohub,2013-01-20 06:47:00,
2013-01-20 01:52:00,30.6,19.9,29.93,SSE,168,5.0,5.0,64,0.00,,,0.00,meteohub,2013-01-20 06:52:00,
2013-01-20 01:57:00,30.6,19.9,29.93,SSE,168,6.0,6.0,64,0.00,,,0.00,meteohub,2013-01-20 06:57:00,
2013-01-20 02:07:00,30.7,19.6,29.93,SSE,168,6.0,9.0,63,0.00,,,0.00,meteohub,2013-01-20 07:07:00,
2013-01-20 02:12:00,30.9,19.8,29.93,SSE,168,5.0,9.0,63,0.00,,,0.00,meteohub,2013-01-20 07:12:00,
2013-01-20 02:17:00,31.1,19.6,29.93,SSE,168,5.0,9.0,62,0.00,,,0.00,meteohub,2013-01-20 07:17:00,
2013-01-20 02:22:00,31.1,19.6,29.93,West,280,4.0,6.0,62,0.00,,,0.00,meteohub,2013-01-20 07:22:00,
2013-01-20 02:27:00,31.1,19.6,29.93,SE,145,6.0,7.0,62,0.00,,,0.00,meteohub,2013-01-20 07:27:00,
2013-01-20 02:32:00,31.1,19.6,29.93,SSE,168,8.0,9.0,62,0.00,,,0.00,meteohub,2013-01-20 07:32:00,
2013-01-20 02:37:00,31.1,19.6,29.93,ESE,122,4.0,9.0,62,0.00,,,0.00,meteohub,2013-01-20 07:37:00,
2013-01-20 02:47:00,31.6,19.8,29.93,SSW,212,6.0,9.0,61,0.00,,,0.00,meteohub,2013-01-20 07:47:00,
2013-01-20 02:52:00,32.2,19.9,29.93,SSE,168,4.0,9.0,60,0.00,,,0.00,meteohub,2013-01-20 07:52:00,
2013-01-20 02:57:00,33.3,20.1,29.93,ENE,78,4.0,17.0,58,0.00,,,0.00,meteohub,2013-01-20 07:57:00,
2013-01-20 03:02:00,33.4,19.9,29.93,SSW,212,13.0,17.0,57,0.00,,,0.00,meteohub,2013-01-20 08:02:00,
2013-01-20 03:07:00,34.0,19.6,29.93,SSE,168,6.0,17.0,55,0.00,,,0.00,meteohub,2013-01-20 08:07:00,
2013-01-20 03:12:00,34.3,19.9,29.93,ENE,78,7.0,17.0,55,0.00,,,0.00,meteohub,2013-01-20 08:12:00,
2013-01-20 03:17:00,35.2,19.9,29.93,WSW,258,5.0,17.0,53,0.00,,,0.00,meteohub,2013-01-20 08:17:00,
2013-01-20 03:27:00,35.1,19.8,29.93,SW,235,11.0,16.0,53,0.00,,,0.00,meteohub,2013-01-20 08:27:00,
2013-01-20 03:32:00,35.2,19.9,29.93,SSE,168,7.0,16.0,53,0.00,,,0.00,meteohub,2013-01-20 08:32:00,
2013-01-20 03:37:00,35.2,19.9,29.93,SW,235,6.0,13.0,53,0.00,,,0.00,meteohub,2013-01-20 08:37:00,
2013-01-20 03:42:00,35.1,19.8,29.93,SSW,212,11.0,15.0,53,0.00,,,0.00,meteohub,2013-01-20 08:42:00,
2013-01-20 03:47:00,35.6,19.8,29.93,East,100,9.0,15.0,52,0.00,,,0.00,meteohub,2013-01-20 08:47:00,
2013-01-20 03:52:00,35.8,19.9,29.93,South,190,7.0,16.0,52,0.00,,,0.00,meteohub,2013-01-20 08:52:00,
2013-01-20 04:02:00,35.1,19.2,29.93,SSW,212,12.0,16.0,52,0.00,,,0.00,meteohub,2013-01-20 09:02:00,
2013-01-20 04:07:00,35.6,19.8,29.93,SSW,212,6.0,19.0,52,0.00,,,0.00,meteohub,2013-01-20 09:07:00,
2013-01-20 04:12:00,35.8,19.9,29.93,SSW,212,3.0,19.0,52,0.00,,,0.00,meteohub,2013-01-20 09:12:00,
2013-01-20 04:17:00,35.6,19.8,29.93,SSW,212,5.0,19.0,52,0.00,,,0.00,meteohub,2013-01-20 09:17:00,
2013-01-20 04:22:00,35.6,19.8,29.93,South,190,6.0,13.0,52,0.00,,,0.00,meteohub,2013-01-20 09:22:00,
2013-01-20 04:27:00,35.4,19.6,29.93,SSW,212,8.0,13.0,52,0.00,,,0.00,meteohub,2013-01-20 09:27:00,
2013-01-20 04:32:00,35.4,19.6,29.93,SSW,212,4.0,16.0,52,0.00,,,0.00,meteohub,2013-01-20 09:32:00,
2013-01-20 04:37:00,35.6,19.8,29.93,East,100,6.0,16.0,52,0.00,,,0.00,meteohub,2013-01-20 09:37:00,
2013-01-20 04:47:00,36.1,20.3,29.93,SSE,168,4.0,16.0,52,0.00,,,0.00,meteohub,2013-01-20 09:47:00,
2013-01-20 04:52:00,36.0,20.1,29.93,ESE,122,16.0,16.0,52,0.00,,,0.00,meteohub,2013-01-20 09:52:00,
2013-01-20 04:57:00,36.1,20.3,29.93,West,280,5.0,21.0,52,0.00,,,0.00,meteohub,2013-01-20 09:57:00,
2013-01-20 05:02:00,36.5,20.1,29.93,WNW,302,10.0,21.0,51,0.00,,,0.00,meteohub,2013-01-20 10:02:00,
2013-01-20 05:07:00,36.9,20.5,29.93,WSW,258,7.0,21.0,51,0.00,,,0.00,meteohub,2013-01-20 10:07:00,
2013-01-20 05:17:00,36.9,20.5,29.93,WSW,258,4.0,16.0,51,0.00,,,0.00,meteohub,2013-01-20 10:17:00,
2013-01-20 05:22:00,36.7,20.8,29.93,NNE,32,7.0,16.0,52,0.00,,,0.00,meteohub,2013-01-20 10:22:00,
2013-01-20 05:32:00,36.5,20.7,29.93,SW,235,5.0,16.0,52,0.00,,,0.00,meteohub,2013-01-20 10:32:00,
2013-01-20 05:37:00,36.3,20.5,29.93,WSW,258,14.0,16.0,52,0.00,,,0.00,meteohub,2013-01-20 10:37:00,
2013-01-20 05:42:00,36.7,20.3,29.93,WNW,302,9.0,21.0,51,0.00,,,0.00,meteohub,2013-01-20 10:42:00,
2013-01-20 05:47:00,36.5,20.7,29.93,SSW,212,8.0,21.0,52,0.00,,,0.00,meteohub,2013-01-20 10:47:00,
2013-01-20 05:52:00,37.0,21.0,29.93,SSW,212,3.0,24.0,52,0.00,,,0.00,meteohub,2013-01-20 10:52:00,
2013-01-20 05:57:00,36.7,20.8,29.90,WSW,258,2.0,24.0,52,0.00,,,0.00,meteohub,2013-01-20 10:57:00,
2013-01-20 06:02:00,36.5,20.7,29.90,West,280,6.0,24.0,52,0.00,,,0.00,meteohub,2013-01-20 11:02:00,
2013-01-20 06:07:00,36.7,20.8,29.90,WSW,258,3.0,21.0,52,0.00,,,0.00,meteohub,2013-01-20 11:07:00,
2013-01-20 06:12:00,36.5,20.7,29.90,SW,235,12.0,21.0,52,0.00,,,0.00,meteohub,2013-01-20 11:12:00,
2013-01-20 06:17:00,37.0,21.0,29.90,SSW,212,8.0,21.0,52,0.00,,,0.00,meteohub,2013-01-20 11:17:00,
2013-01-20 06:22:00,36.5,20.7,29.90,WSW,258,8.0,21.0,52,0.00,,,0.00,meteohub,2013-01-20 11:22:00,
2013-01-20 06:27:00,37.0,21.0,29.93,SW,235,9.0,21.0,52,0.00,,,0.00,meteohub,2013-01-20 11:27:00,
2013-01-20 06:32:00,36.9,20.8,29.93,SSW,212,4.0,21.0,52,0.00,,,0.00,meteohub,2013-01-20 11:32:00,
2013-01-20 06:37:00,36.7,20.8,29.93,West,280,13.0,21.0,52,0.00,,,0.00,meteohub,2013-01-20 11:37:00,
2013-01-20 06:47:00,37.0,21.0,29.93,South,190,6.0,18.0,52,0.00,,,0.00,meteohub,2013-01-20 11:47:00,
2013-01-20 06:52:00,37.2,21.2,29.93,SSW,212,5.0,18.0,52,0.00,,,0.00,meteohub,2013-01-20 11:52:00,
2013-01-20 06:57:00,37.2,21.2,29.93,WSW,258,8.0,21.0,52,0.00,,,0.00,meteohub,2013-01-20 11:57:00,
2013-01-20 07:02:00,37.0,21.0,29.93,WSW,258,11.0,21.0,52,0.00,,,0.00,meteohub,2013-01-20 12:02:00,
2013-01-20 07:07:00,37.0,21.0,29.93,West,280,6.0,31.0,52,0.00,,,0.00,meteohub,2013-01-20 12:07:00,
2013-01-20 07:12:00,37.0,21.0,29.93,WNW,302,17.0,31.0,52,0.00,,,0.00,meteohub,2013-01-20 12:12:00,
2013-01-20 07:17:00,37.0,21.0,29.93,SE,145,6.0,31.0,52,0.00,,,0.00,meteohub,2013-01-20 12:17:00,
2013-01-20 07:22:00,37.0,21.0,29.93,WSW,258,21.0,28.0,52,0.00,,,0.00,meteohub,2013-01-20 12:22:00,
2013-01-20 07:27:00,37.0,21.0,29.93,SW,235,16.0,22.0,52,0.00,,,0.00,meteohub,2013-01-20 12:27:00,
2013-01-20 07:32:00,37.0,21.0,29.93,WSW,258,16.0,24.0,52,0.00,,,0.00,meteohub,2013-01-20 12:32:00,
2013-01-20 07:37:00,37.0,21.0,29.93,SE,145,7.0,24.0,52,0.00,,,0.00,meteohub,2013-01-20 12:37:00,
2013-01-20 07:42:00,36.9,21.4,29.93,SSE,168,5.0,24.0,53,0.00,,,0.00,meteohub,2013-01-20 12:42:00,
2013-01-20 07:47:00,37.0,21.6,29.93,SSE,168,16.0,20.0,53,0.00,,,0.00,meteohub,2013-01-20 12:47:00,
2013-01-20 07:52:00,37.0,21.6,29.93,SSW,212,17.0,19.0,53,0.00,,,0.00,meteohub,2013-01-20 12:52:00,
2013-01-20 07:57:00,37.2,21.7,29.93,SE,145,7.0,17.0,53,0.00,,,0.00,meteohub,2013-01-20 12:57:00,
2013-01-20 08:02:00,37.4,21.4,29.93,South,190,7.0,19.0,52,0.00,,,0.00,meteohub,2013-01-20 13:02:00,
2013-01-20 08:07:00,37.2,21.7,29.93,West,280,5.0,26.0,53,0.00,,,0.00,meteohub,2013-01-20 13:07:00,
2013-01-20 08:12:00,37.4,21.4,29.93,NW,325,8.0,26.0,52,0.00,,,0.00,meteohub,2013-01-20 13:12:00,
2013-01-20 08:17:00,37.2,21.7,29.93,WSW,258,10.0,26.0,53,0.00,,,0.00,meteohub,2013-01-20 13:17:00,
2013-01-20 08:22:00,37.4,21.9,29.93,SSW,212,8.0,26.0,53,0.00,,,0.00,meteohub,2013-01-20 13:22:00,
2013-01-20 08:27:00,37.8,22.3,29.93,WSW,258,12.0,26.0,53,0.00,,,0.00,meteohub,2013-01-20 13:27:00,
2013-01-20 08:32:00,37.4,21.9,29.93,West,280,16.0,29.0,53,0.00,,,0.00,meteohub,2013-01-20 13:32:00,
2013-01-20 08:37:00,37.6,22.1,29.93,SW,235,5.0,29.0,53,0.00,,,0.00,meteohub,2013-01-20 13:37:00,
2013-01-20 08:42:00,37.4,21.9,29.93,SSW,212,17.0,29.0,53,0.00,,,0.00,meteohub,2013-01-20 13:42:00,
2013-01-20 08:47:00,37.6,22.1,29.93,WSW,258,14.0,20.0,53,0.00,,,0.00,meteohub,2013-01-20 13:47:00,
2013-01-20 08:52:00,37.9,22.5,29.93,SW,235,15.0,17.0,53,0.00,,,0.00,meteohub,2013-01-20 13:52:00,
2013-01-20 08:57:00,37.9,22.5,29.93,WSW,258,8.0,17.0,53,0.00,,,0.00,meteohub,2013-01-20 13:57:00,
2013-01-20 09:02:00,37.9,22.5,29.93,SSE,168,17.0,17.0,53,0.00,,,0.00,meteohub,2013-01-20 14:02:00,
2013-01-20 09:07:00,37.9,22.5,29.93,WNW,302,9.0,22.0,53,0.00,,,0.00,meteohub,2013-01-20 14:07:00,
2013-01-20 09:12:00,38.3,22.6,29.93,WSW,258,9.0,26.0,53,0.00,,,0.00,meteohub,2013-01-20 14:12:00,
2013-01-20 09:17:00,38.1,22.5,29.93,SE,145,13.0,26.0,53,0.00,,,0.00,meteohub,2013-01-20 14:17:00,
2013-01-20 09:22:00,38.7,23.0,29.93,SSW,212,6.0,26.0,53,0.00,,,0.00,meteohub,2013-01-20 14:22:00,
2013-01-20 09:27:00,38.7,23.0,29.93,WNW,302,18.0,26.0,53,0.00,,,0.00,meteohub,2013-01-20 14:27:00,
2013-01-20 09:32:00,38.7,23.0,29.93,WNW,302,9.0,26.0,53,0.00,,,0.00,meteohub,2013-01-20 14:32:00,
2013-01-20 09:37:00,38.8,23.2,29.93,SSE,168,9.0,22.0,53,0.00,,,0.00,meteohub,2013-01-20 14:37:00,
2013-01-20 09:47:00,39.0,23.4,29.93,South,190,19.0,19.0,53,0.00,,,0.00,meteohub,2013-01-20 14:47:00,
2013-01-20 09:52:00,39.4,23.2,29.93,SSW,212,4.0,19.0,52,0.00,,,0.00,meteohub,2013-01-20 14:52:00,
2013-01-20 09:57:00,39.6,23.4,29.93,South,190,17.0,21.0,52,0.00,,,0.00,meteohub,2013-01-20 14:57:00,
2013-01-20 10:02:00,39.7,23.5,29.93,ENE,78,4.0,28.0,52,0.00,,,0.00,meteohub,2013-01-20 15:02:00,
2013-01-20 10:07:00,39.7,23.5,29.93,SSW,212,10.0,28.0,52,0.00,,,0.00,meteohub,2013-01-20 15:07:00,
2013-01-20 10:12:00,40.1,23.9,29.90,WSW,258,9.0,28.0,52,0.00,,,0.00,meteohub,2013-01-20 15:12:00,
2013-01-20 10:17:00,40.1,23.9,29.90,SSW,212,6.0,21.0,52,0.00,,,0.00,meteohub,2013-01-20 15:17:00,
2013-01-20 10:22:00,40.5,23.7,29.90,WSW,258,12.0,21.0,51,0.00,,,0.00,meteohub,2013-01-20 15:22:00,
2013-01-20 10:27:00,40.6,23.9,29.90,South,190,11.0,21.0,51,0.00,,,0.00,meteohub,2013-01-20 15:27:00,
2013-01-20 10:32:00,41.0,23.9,29.90,WSW,258,12.0,21.0,50,0.00,,,0.00,meteohub,2013-01-20 15:32:00,
2013-01-20 10:37:00,41.2,24.4,29.90,SW,235,25.0,25.0,51,0.00,,,0.00,meteohub,2013-01-20 15:37:00,
2013-01-20 10:42:00,41.7,24.4,29.90,NNE,32,12.0,25.0,50,0.00,,,0.00,meteohub,2013-01-20 15:42:00,
2013-01-20 10:47:00,41.9,24.6,29.90,WSW,258,12.0,25.0,50,0.00,,,0.00,meteohub,2013-01-20 15:47:00,
2013-01-20 10:52:00,42.1,24.8,29.90,NW,325,5.0,25.0,50,0.00,,,0.00,meteohub,2013-01-20 15:52:00,
2013-01-20 11:07:00,43.0,24.6,29.93,NNW,348,12.0,33.0,48,0.00,,,0.00,meteohub,2013-01-20 16:07:00,
2013-01-20 11:12:00,43.3,24.4,29.93,East,100,14.0,33.0,47,0.00,,,0.00,meteohub,2013-01-20 16:12:00,
2013-01-20 11:17:00,43.5,23.7,29.93,SE,145,5.0,30.0,45,0.00,,,0.00,meteohub,2013-01-20 16:17:00,
2013-01-20 11:22:00,43.7,24.3,29.93,NNW,348,29.0,29.0,46,0.00,,,0.00,meteohub,2013-01-20 16:22:00,
2013-01-20 11:27:00,43.9,23.9,29.93,NW,325,21.0,29.0,45,0.00,,,0.00,meteohub,2013-01-20 16:27:00,
2013-01-20 11:32:00,44.1,23.5,29.93,WSW,258,8.0,31.0,44,0.00,,,0.00,meteohub,2013-01-20 16:32:00,
2013-01-20 11:37:00,44.2,23.7,29.93,WNW,302,9.0,33.0,44,0.00,,,0.00,meteohub,2013-01-20 16:37:00,
2013-01-20 11:42:00,44.4,23.4,29.93,NNW,348,20.0,33.0,43,0.00,,,0.00,meteohub,2013-01-20 16:42:00,
2013-01-20 11:47:00,44.6,23.0,29.93,WSW,258,16.0,21.0,42,0.00,,,0.00,meteohub,2013-01-20 16:47:00,
2013-01-20 11:52:00,44.8,23.2,29.93,SW,235,11.0,38.0,42,0.00,,,0.00,meteohub,2013-01-20 16:52:00,
2013-01-20 11:57:00,45.0,23.4,29.93,SW,235,13.0,38.0,42,0.00,,,0.00,meteohub,2013-01-20 16:57:00,
2013-01-20 12:02:00,44.8,21.9,29.93,ENE,78,10.0,38.0,40,0.00,,,0.00,meteohub,2013-01-20 17:02:00,
2013-01-20 12:07:00,45.0,22.8,29.93,SSW,212,16.0,38.0,41,0.00,,,0.00,meteohub,2013-01-20 17:07:00,
2013-01-20 12:12:00,44.8,22.6,29.93,NNW,348,12.0,38.0,41,0.00,,,0.00,meteohub,2013-01-20 17:12:00,
2013-01-20 12:17:00,45.1,22.8,29.93,East,100,8.0,28.0,41,0.00,,,0.00,meteohub,2013-01-20 17:17:00,
2013-01-20 12:22:00,45.1,22.3,29.93,NNW,348,7.0,25.0,40,0.00,,,0.00,meteohub,2013-01-20 17:22:00,
2013-01-20 12:27:00,45.1,22.3,29.90,WNW,302,7.0,26.0,40,0.00,,,0.00,meteohub,2013-01-20 17:27:00,
2013-01-20 12:32:00,45.3,22.5,29.90,North,10,6.0,26.0,40,0.00,,,0.00,meteohub,2013-01-20 17:32:00,
2013-01-20 12:37:00,45.5,22.6,29.90,NNE,32,26.0,26.0,40,0.00,,,0.00,meteohub,2013-01-20 17:37:00,
2013-01-20 12:42:00,45.1,21.7,29.90,WNW,302,17.0,26.0,39,0.05,,,0.05,meteohub,2013-01-20 17:42:00,
2013-01-20 12:47:00,45.3,21.9,29.90,NNW,348,12.0,26.0,39,0.05,,,0.05,meteohub,2013-01-20 17:47:00,
2013-01-20 12:52:00,45.5,22.1,29.90,South,190,15.0,26.0,39,0.05,,,0.05,meteohub,2013-01-20 17:52:00,
2013-01-20 12:57:00,45.5,22.1,29.93,SW,235,7.0,26.0,39,0.05,,,0.05,meteohub,2013-01-20 17:57:00,
2013-01-20 13:02:00,45.5,22.1,29.93,WSW,258,9.0,42.0,39,0.05,,,0.05,meteohub,2013-01-20 18:02:00,
2013-01-20 13:07:00,45.3,21.9,29.93,ENE,78,17.0,42.0,39,0.05,,,0.05,meteohub,2013-01-20 18:07:00,
2013-01-20 13:12:00,45.3,21.9,29.93,WSW,258,6.0,42.0,39,0.05,,,0.05,meteohub,2013-01-20 18:12:00,
2013-01-20 13:17:00,45.5,22.1,29.93,WSW,258,7.0,42.0,39,0.05,,,0.05,meteohub,2013-01-20 18:17:00,
2013-01-20 13:22:00,45.7,22.3,29.93,SE,145,8.0,42.0,39,0.05,,,0.05,meteohub,2013-01-20 18:22:00,
2013-01-20 13:27:00,45.7,22.3,29.90,NNW,348,18.0,29.0,39,0.05,,,0.05,meteohub,2013-01-20 18:27:00,
2013-01-20 13:32:00,45.7,22.3,29.90,SW,235,11.0,29.0,39,0.05,,,0.05,meteohub,2013-01-20 18:32:00,
2013-01-20 13:37:00,45.9,21.7,29.90,NNW,348,11.0,38.0,38,0.05,,,0.05,meteohub,2013-01-20 18:37:00,
2013-01-20 13:42:00,45.7,22.3,29.90,West,280,10.0,38.0,39,0.00,,,0.05,meteohub,2013-01-20 18:42:00,
2013-01-20 13:47:00,46.0,22.5,29.90,South,190,4.0,38.0,39,0.00,,,0.05,meteohub,2013-01-20 18:47:00,
2013-01-20 13:52:00,45.9,22.3,29.90,WNW,302,13.0,26.0,39,0.00,,,0.05,meteohub,2013-01-20 18:52:00,
2013-01-20 13:57:00,46.0,22.5,29.93,North,10,8.0,33.0,39,0.00,,,0.05,meteohub,2013-01-20 18:57:00,
2013-01-20 14:02:00,46.0,21.9,29.93,NNW,348,15.0,33.0,38,0.00,,,0.05,meteohub,2013-01-20 19:02:00,
2013-01-20 14:07:00,45.9,22.3,29.93,NNW,348,10.0,33.0,39,0.00,,,0.05,meteohub,2013-01-20 19:07:00,
2013-01-20 14:12:00,45.7,22.3,29.93,WNW,302,21.0,24.0,39,0.00,,,0.05,meteohub,2013-01-20 19:12:00,
2013-01-20 14:17:00,45.5,22.1,29.93,NW,325,24.0,34.0,39,0.00,,,0.05,meteohub,2013-01-20 19:17:00,
2013-01-20 14:22:00,45.3,21.9,29.93,NNW,348,22.0,34.0,39,0.00,,,0.05,meteohub,2013-01-20 19:22:00,
2013-01-20 14:27:00,45.5,22.1,29.93,NNE,32,8.0,44.0,39,0.00,,,0.05,meteohub,2013-01-20 19:27:00,
2013-01-20 14:32:00,45.3,21.9,29.93,NNW,348,21.0,44.0,39,0.00,,,0.05,meteohub,2013-01-20 19:32:00,
2013-01-20 14:37:00,45.5,21.4,29.93,NW,325,16.0,34.0,38,0.00,,,0.05,meteohub,2013-01-20 19:37:00,
2013-01-20 14:42:00,45.5,21.4,29.93,WNW,302,11.0,34.0,38,0.00,,,0.05,meteohub,2013-01-20 19:42:00,
2013-01-20 14:47:00,45.9,21.7,29.93,NNW,348,16.0,34.0,38,0.00,,,0.05,meteohub,2013-01-20 19:47:00,
2013-01-20 14:52:00,45.7,21.6,29.93,North,10,20.0,26.0,38,0.00,,,0.05,meteohub,2013-01-20 19:52:00,
2013-01-20 14:57:00,45.9,21.7,29.93,West,280,13.0,38.0,38,0.00,,,0.05,meteohub,2013-01-20 19:57:00,
2013-01-20 15:02:00,45.7,21.6,29.93,North,10,17.0,38.0,38,0.00,,,0.05,meteohub,2013-01-20 20:02:00,
2013-01-20 15:07:00,45.7,21.6,29.93,NNW,348,17.0,38.0,38,0.00,,,0.05,meteohub,2013-01-20 20:07:00,
2013-01-20 15:12:00,45.3,21.2,29.93,NW,325,26.0,34.0,38,0.00,,,0.05,meteohub,2013-01-20 20:12:00,
2013-01-20 15:17:00,45.1,21.0,29.93,NW,325,35.0,36.0,38,0.00,,,0.05,meteohub,2013-01-20 20:17:00,
2013-01-20 15:22:00,45.1,21.0,29.93,NNE,32,25.0,42.0,38,0.00,,,0.05,meteohub,2013-01-20 20:22:00,
2013-01-20 15:27:00,45.1,21.0,29.93,NNW,348,16.0,42.0,38,0.00,,,0.05,meteohub,2013-01-20 20:27:00,
2013-01-20 15:32:00,45.0,20.3,29.93,NNW,348,22.0,42.0,37,0.00,,,0.05,meteohub,2013-01-20 20:32:00,
2013-01-20 15:37:00,45.0,20.3,29.93,WNW,302,12.0,40.0,37,0.00,,,0.05,meteohub,2013-01-20 20:37:00,
2013-01-20 15:47:00,44.8,20.1,29.93,North,10,12.0,32.0,37,0.00,,,0.05,meteohub,2013-01-20 20:47:00,
2013-01-20 15:52:00,44.8,20.1,29.93,NNE,32,11.0,21.0,37,0.00,,,0.05,meteohub,2013-01-20 20:52:00,
2013-01-20 15:57:00,44.4,20.5,29.93,WNW,302,13.0,27.0,38,0.00,,,0.05,meteohub,2013-01-20 20:57:00,
2013-01-20 16:02:00,44.2,20.3,29.93,West,280,12.0,35.0,38,0.00,,,0.05,meteohub,2013-01-20 21:02:00,
2013-01-20 16:07:00,44.2,20.3,29.93,WSW,258,13.0,35.0,38,0.00,,,0.05,meteohub,2013-01-20 21:07:00,
2013-01-20 16:17:00,43.9,18.7,29.93,WNW,302,15.0,40.0,36,0.00,,,0.05,meteohub,2013-01-20 21:17:00,
2013-01-20 16:27:00,43.5,19.0,29.93,NNW,348,25.0,40.0,37,0.00,,,0.05,meteohub,2013-01-20 21:27:00,
2013-01-20 16:32:00,43.3,18.9,29.93,NNW,348,20.0,34.0,37,0.00,,,0.05,meteohub,2013-01-20 21:32:00,
2013-01-20 16:37:00,43.3,18.3,29.93,NNW,348,25.0,29.0,36,0.00,,,0.05,meteohub,2013-01-20 21:37:00,
2013-01-20 16:47:00,43.0,18.5,29.93,West,280,12.0,27.0,37,0.00,,,0.05,meteohub,2013-01-20 21:47:00,
2013-01-20 16:52:00,42.6,18.1,29.93,WNW,302,15.0,25.0,37,0.00,,,0.05,meteohub,2013-01-20 21:52:00,
2013-01-20 17:02:00,42.4,17.4,29.96,North,10,7.0,26.0,36,0.00,,,0.05,meteohub,2013-01-20 22:02:00,
2013-01-20 17:12:00,42.1,18.3,29.96,NNW,348,12.0,29.0,38,0.00,,,0.05,meteohub,2013-01-20 22:12:00,
2013-01-20 17:17:00,41.7,18.0,29.96,NW,325,8.0,30.0,38,0.00,,,0.05,meteohub,2013-01-20 22:17:00,
2013-01-20 17:22:00,41.4,17.8,29.96,WSW,258,4.0,30.0,38,0.00,,,0.05,meteohub,2013-01-20 22:22:00,
2013-01-20 17:27:00,40.6,17.6,29.96,WSW,258,8.0,30.0,39,0.00,,,0.05,meteohub,2013-01-20 22:27:00,
2013-01-20 17:32:00,40.5,17.6,29.96,NNW,348,8.0,13.0,39,0.00,,,0.05,meteohub,2013-01-20 22:32:00,
2013-01-20 17:42:00,40.5,17.6,29.96,NW,325,11.0,13.0,39,0.00,,,0.05,meteohub,2013-01-20 22:42:00,
2013-01-20 17:47:00,40.5,17.6,29.96,West,280,16.0,16.0,39,0.00,,,0.05,meteohub,2013-01-20 22:47:00,
2013-01-20 17:52:00,40.6,17.6,29.96,NW,325,20.0,21.0,39,0.00,,,0.05,meteohub,2013-01-20 22:52:00,
2013-01-20 18:02:00,40.1,17.2,29.96,ENE,78,0.0,26.0,39,0.00,,,0.05,meteohub,2013-01-20 23:02:00,
2013-01-20 18:07:00,39.9,17.1,29.96,NNE,32,6.0,26.0,39,0.00,,,0.05,meteohub,2013-01-20 23:07:00,
2013-01-20 18:12:00,39.4,16.5,29.96,WNW,302,8.0,21.0,39,0.00,,,0.05,meteohub,2013-01-20 23:12:00,
2013-01-20 18:22:00,39.4,16.5,29.96,ESE,122,3.0,13.0,39,0.00,,,0.05,meteohub,2013-01-20 23:22:00,
2013-01-20 18:27:00,39.2,16.3,29.99,WSW,258,5.0,11.0,39,0.00,,,0.05,meteohub,2013-01-20 23:27:00,
2013-01-20 18:32:00,39.2,16.3,29.99,SSW,212,5.0,11.0,39,0.00,,,0.05,meteohub,2013-01-20 23:32:00,
2013-01-20 18:37:00,38.7,16.5,29.99,WSW,258,5.0,11.0,40,0.00,,,0.05,meteohub,2013-01-20 23:37:00,
2013-01-20 18:47:00,38.1,16.0,29.99,South,190,4.0,14.0,40,0.00,,,0.05,meteohub,2013-01-20 23:47:00,
2013-01-20 18:52:00,38.1,16.0,29.99,South,190,7.0,15.0,40,0.00,,,0.05,meteohub,2013-01-20 23:52:00,
2013-01-20 18:57:00,37.9,15.8,29.99,NE,55,2.0,15.0,40,0.00,,,0.05,meteohub,2013-01-20 23:57:00,
2013-01-20 19:02:00,38.1,16.0,29.99,West,280,5.0,15.0,40,0.00,,,0.05,meteohub,2013-01-21 00:02:00,
2013-01-20 19:12:00,37.6,15.4,29.99,South,190,0.0,11.0,40,0.00,,,0.05,meteohub,2013-01-21 00:12:00,
2013-01-20 19:22:00,37.4,15.3,29.99,WNW,302,2.0,9.0,40,0.00,,,0.05,meteohub,2013-01-21 00:22:00,
2013-01-20 19:32:00,37.2,15.3,29.99,SW,235,5.0,12.0,40,0.00,,,0.05,meteohub,2013-01-21 00:32:00,
2013-01-20 19:37:00,37.0,15.1,29.99,WNW,302,2.0,12.0,40,0.00,,,0.05,meteohub,2013-01-21 00:37:00,
2013-01-20 19:47:00,36.7,14.7,29.99,NW,325,4.0,11.0,40,0.00,,,0.05,meteohub,2013-01-21 00:47:00,
2013-01-20 19:52:00,36.7,14.7,29.99,WNW,302,15.0,15.0,40,0.00,,,0.05,meteohub,2013-01-21 00:52:00,
2013-01-20 19:57:00,36.7,14.7,29.99,West,280,5.0,16.0,40,0.00,,,0.05,meteohub,2013-01-21 00:57:00,
2013-01-20 20:02:00,36.3,14.4,29.99,WNW,302,2.0,16.0,40,0.00,,,0.05,meteohub,2013-01-21 01:02:00,
2013-01-20 20:07:00,36.1,14.2,29.99,SW,235,4.0,16.0,40,0.00,,,0.05,meteohub,2013-01-21 01:07:00,
2013-01-20 20:12:00,36.3,13.8,29.99,WNW,302,10.0,14.0,39,0.00,,,0.05,meteohub,2013-01-21 01:12:00,
2013-01-20 20:17:00,36.3,13.8,29.99,South,190,3.0,14.0,39,0.00,,,0.05,meteohub,2013-01-21 01:17:00,
2013-01-20 20:22:00,35.8,13.3,29.99,South,190,6.0,14.0,39,0.00,,,0.05,meteohub,2013-01-21 01:22:00,
2013-01-20 20:32:00,36.0,13.5,29.99,WSW,258,7.0,13.0,39,0.00,,,0.05,meteohub,2013-01-21 01:32:00,
2013-01-20 20:42:00,35.4,13.6,29.99,West,280,4.0,17.0,40,0.00,,,0.05,meteohub,2013-01-21 01:42:00,
2013-01-20 20:47:00,35.6,13.1,29.99,WSW,258,5.0,17.0,39,0.00,,,0.05,meteohub,2013-01-21 01:47:00,
2013-01-20 20:52:00,35.8,12.2,29.99,WNW,302,6.0,12.0,37,0.00,,,0.05,meteohub,2013-01-21 01:52:00,
2013-01-20 21:02:00,35.6,12.0,29.99,South,190,5.0,13.0,37,0.00,,,0.05,meteohub,2013-01-21 02:02:00,
2013-01-20 21:07:00,35.6,12.0,29.99,SW,235,2.0,13.0,37,0.00,,,0.05,meteohub,2013-01-21 02:07:00,
2013-01-20 21:12:00,35.4,11.1,29.99,South,190,7.0,15.0,36,0.00,,,0.05,meteohub,2013-01-21 02:12:00,
2013-01-20 21:17:00,35.6,12.0,29.99,WSW,258,4.0,17.0,37,0.00,,,0.05,meteohub,2013-01-21 02:17:00,
2013-01-20 21:22:00,35.2,11.7,29.99,WNW,302,6.0,17.0,37,0.00,,,0.05,meteohub,2013-01-21 02:22:00,
2013-01-20 21:27:00,35.1,11.5,29.99,WSW,258,6.0,17.0,37,0.00,,,0.05,meteohub,2013-01-21 02:27:00,
2013-01-20 21:32:00,35.2,10.9,29.99,South,190,11.0,21.0,36,0.00,,,0.05,meteohub,2013-01-21 02:32:00,
2013-01-20 21:42:00,34.9,10.8,29.99,NW,325,5.0,21.0,36,0.00,,,0.05,meteohub,2013-01-21 02:42:00,
2013-01-20 21:52:00,34.9,10.8,29.99,West,280,17.0,20.0,36,0.00,,,0.05,meteohub,2013-01-21 02:52:00,
2013-01-20 22:02:00,34.5,10.4,29.99,ENE,78,12.0,17.0,36,0.00,,,0.05,meteohub,2013-01-21 03:02:00,
2013-01-20 22:07:00,34.5,10.4,29.99,WNW,302,8.0,17.0,36,0.00,,,0.05,meteohub,2013-01-21 03:07:00,
2013-01-20 22:17:00,34.3,9.7,29.99,SW,235,5.0,17.0,35,0.00,,,0.05,meteohub,2013-01-21 03:17:00,
2013-01-20 22:22:00,34.3,9.7,29.99,NNE,32,5.0,17.0,35,0.00,,,0.05,meteohub,2013-01-21 03:22:00,
2013-01-20 22:32:00,34.0,9.3,29.99,NNW,348,6.0,19.0,35,0.00,,,0.05,meteohub,2013-01-21 03:32:00,
2013-01-20 22:42:00,33.8,9.1,29.99,NNW,348,6.0,12.0,35,0.00,,,0.05,meteohub,2013-01-21 03:42:00,
2013-01-20 22:47:00,33.6,9.5,29.99,NNW,348,5.0,10.0,36,0.00,,,0.05,meteohub,2013-01-21 03:47:00,
2013-01-20 22:52:00,33.6,9.5,29.99,West,280,8.0,12.0,36,0.00,,,0.05,meteohub,2013-01-21 03:52:00,
2013-01-20 22:57:00,33.4,9.5,29.99,North,10,3.0,12.0,36,0.00,,,0.05,meteohub,2013-01-21 03:57:00,
2013-01-20 23:07:00,33.1,9.1,29.99,WNW,302,8.0,12.0,36,0.00,,,0.05,meteohub,2013-01-21 04:07:00,
2013-01-20 23:12:00,32.7,9.3,29.99,WSW,258,6.0,12.0,37,0.00,,,0.05,meteohub,2013-01-21 04:12:00,
2013-01-20 23:22:00,32.7,9.3,29.99,SSE,168,5.0,11.0,37,0.00,,,0.05,meteohub,2013-01-21 04:22:00,
2013-01-20 23:27:00,32.7,9.3,29.99,North,10,6.0,10.0,37,0.00,,,0.05,meteohub,2013-01-21 04:27:00,
2013-01-20 23:32:00,32.5,9.1,29.99,SW,235,7.0,10.0,37,0.00,,,0.05,meteohub,2013-01-21 04:32:00,
2013-01-20 23:42:00,32.5,8.6,29.99,North,10,8.0,9.0,36,0.00,,,0.05,meteohub,2013-01-21 04:42:00,
2013-01-20 23:47:00,32.5,8.6,29.99,NW,325,3.0,12.0,36,0.00,,,0.05,meteohub,2013-01-21 04:47:00,
2013-01-20 23:52:00,32.2,9.0,29.99,SSW,212,3.0,12.0,37,0.00,,,0.05,meteohub,2013-01-21 04:52:00,
2013-01-20 23:57:00,32.2,9.0,29.99,South,190,7.0,12.0,37,0.00,,,0.05,meteohub,2013-01-21 04:57:00,